EW7304 Weather Reports


time (UTC)temp
C
wind
direction
speed
KPH
gust
KPH
rain 1hr
cm
rain 24hr
cm
rain mn
cm
humidity
%
barometer
mb
20260506193002 28 210 0.0 6.4 0.00 0.00 0.00 83 1009.5
20260506191601 28 236 0.0 3.2 0.00 0.00 0.00 83 1009.6
20260506190100 28 202 0.0 4.8 0.00 0.00 0.00 84 1009.8
20260506184558 28 210 0.0 4.8 0.00 0.00 0.00 84 1010.0
20260506184521 28 135 0.0 4.8 0.00 0.00 0.00 84 1010.0
20260506183107 28 261 0.0 4.8 0.00 0.00 0.00 83 1010.0
20260506181557 28 163 0.0 6.4 0.00 0.00 0.00 84 1010.4
20260506180054 28 218 0.0 0.0 0.00 0.00 0.00 85 1010.5
20260506174552 28 154 0.0 1.6 0.00 0.00 0.00 85 1010.5
20260506173058 28 218 0.0 3.2 0.00 0.00 0.00 86 1010.7
20260506171550 27 213 0.0 3.2 0.00 0.00 0.00 87 1010.9
20260506170052 27 56 0.0 4.8 0.00 0.00 0.00 90 1011.0
20260506164554 26 195 0.0 3.2 0.00 0.00 0.00 91 1010.9
20260506163041 26 212 0.0 1.6 0.00 0.00 0.00 91 1010.8
20260506161534 26 218 0.0 1.6 0.00 0.00 0.00 91 1010.8
20260506160035 26 11 0.0 3.2 0.00 0.00 0.00 92 1010.8
20260506154530 26 169 0.0 1.6 0.00 0.00 0.00 92 1010.6
20260506153027 26 90 0.0 0.0 0.00 0.00 0.00 92 1010.3
20260506151527 26 48 0.0 1.6 0.00 0.00 0.00 92 1010.2
20260506150027 26 238 0.0 1.6 0.00 0.00 0.00 92 1009.9
20260506144529 25 137 0.0 3.2 0.00 0.00 0.00 93 1009.7
20260506143025 26 131 0.0 1.6 0.00 0.00 0.00 92 1009.7
20260506141530 26 209 0.0 0.0 0.00 0.00 0.00 92 1009.9
20260506140022 26 135 0.0 4.8 0.00 0.00 0.00 92 1009.9
20260506134520 25 159 0.0 0.0 0.00 0.00 0.00 94 1009.9
20260506133017 25 71 0.0 1.6 0.00 0.00 0.00 95 1010.1
20260506131547 25 27 0.0 0.0 0.00 0.00 0.00 95 1010.1
20260506130017 25 219 0.0 1.6 0.00 0.00 0.00 95 1010.1
20260506124513 24 139 0.0 0.0 0.00 0.00 0.00 95 1009.9
20260506123014 24 139 0.0 0.0 0.00 0.00 0.00 96 1009.8
20260506121514 24 137 0.0 0.0 0.00 0.00 0.00 96 1009.7
20260506120020 24 137 0.0 0.0 0.00 0.00 0.00 96 1009.5
20260506114510 24 135 0.0 0.0 0.00 0.00 0.00 96 1009.2
20260506113010 24 167 0.0 3.2 0.00 0.00 0.00 96 1008.9
20260506111509 24 147 0.0 0.0 0.00 0.00 0.00 96 1008.8
20260506110009 24 216 0.0 1.6 0.00 0.00 0.00 96 1008.8
20260506104513 23 235 0.0 1.6 0.00 0.00 0.00 96 1008.9
20260506103025 23 326 0.0 0.0 0.00 0.00 0.00 96 1008.9
20260506101508 23 326 0.0 1.6 0.00 0.00 0.00 96 1008.9
20260506100006 23 32 0.0 0.0 0.00 0.00 0.00 95 1008.7
20260506094505 24 32 0.0 0.0 0.00 0.00 0.00 95 1008.6
20260506093003 24 32 0.0 1.6 0.00 0.00 0.00 95 1008.7
20260506091502 24 99 0.0 1.6 0.00 0.00 0.00 95 1008.7
20260506090001 24 206 0.0 0.0 0.00 0.00 0.00 95 1008.7
20260506084635 24 206 0.0 0.0 0.00 0.00 0.00 94 1009.0
20260506083059 24 207 0.0 4.8 0.00 0.00 0.00 94 1009.1
20260506081601 24 205 0.0 3.2 0.00 0.00 0.00 94 1009.1
20260506073051 24 212 0.0 3.2 0.00 0.00 0.00 93 1009.6
20260506071549 25 222 0.0 4.8 0.00 0.00 0.00 93 1009.7
20260506061544 25 227 0.0 3.2 0.00 0.00 0.00 92 1009.7
20260506044539 25 217 0.0 3.2 0.00 0.00 0.00 91 1009.8
20260506043044 25 223 0.0 4.8 0.00 0.00 0.00 91 1009.7
20260506041639 25 330 0.0 8.0 0.00 0.00 0.00 91 1009.7
20260506040038 25 170 0.0 3.2 0.00 0.00 0.00 91 1009.4
20260506034536 25 70 0.0 1.6 0.00 0.00 0.00 91 1009.5
20260506033035 25 200 0.0 3.2 0.00 0.00 0.00 91 1009.4
20260506031540 25 207 0.0 3.2 0.00 0.00 0.00 92 1009.2
20260506030035 25 152 0.0 3.2 0.00 0.00 0.00 92 1009.2
20260506024537 25 207 0.0 6.4 0.00 0.00 0.00 92 1009.1
20260506023051 25 160 0.0 1.6 0.00 0.00 0.00 92 1008.8
20260506021559 25 148 0.0 1.6 0.00 0.00 0.00 91 1008.7
20260506020032 25 55 0.0 4.8 0.00 0.00 0.00 91 1008.4
20260506014532 25 76 0.0 3.2 0.00 0.00 0.00 90 1008.2
20260506013034 25 219 0.0 3.2 0.00 0.00 0.00 90 1008.1
20260506011530 25 202 0.0 4.8 0.00 0.00 0.00 89 1007.9
20260506010032 25 101 0.0 3.2 0.00 0.00 0.00 89 1007.7
20260506004530 25 193 0.0 6.4 0.00 0.00 0.00 89 1007.5
20260506003028 25 222 0.0 8.0 0.00 0.00 0.00 88 1007.5
20260506001527 26 224 0.0 8.0 0.00 0.00 0.00 88 1007.4
20260506000027 26 147 0.0 4.8 0.00 0.00 0.00 88 1007.5
20260505234527 26 204 1.6 11.3 0.00 0.00 0.00 87 1007.4
20260505233027 26 184 0.0 8.0 0.00 0.00 0.00 86 1007.6
20260505231538 26 189 0.0 14.5 0.00 0.00 0.00 85 1007.6
20260505230026 26 113 1.6 8.0 0.00 0.00 0.00 84 1007.6
20260505224523 26 198 0.0 6.4 0.00 0.00 0.00 84 1007.5
20260505223020 26 57 1.6 12.9 0.00 0.00 0.00 84 1007.7
20260505221520 26 115 0.0 11.3 0.00 0.00 0.00 85 1007.6
20260505220023 26 146 0.0 4.8 0.00 0.00 0.00 85 1007.7
20260505214518 27 78 0.0 8.0 0.00 0.00 0.00 84 1008.0
20260505213022 27 239 3.2 9.7 0.00 0.00 0.00 84 1008.1
20260505211514 26 224 1.6 9.7 0.00 0.00 0.00 85 1008.2
20260505210015 27 212 0.0 9.7 0.00 0.00 0.00 84 1008.2
20260505204512 27 207 1.6 9.7 0.00 0.00 0.00 85 1008.6
20260505203012 27 211 0.0 6.4 0.00 0.00 0.00 85 1008.8
20260505201512 27 193 4.8 16.1 0.00 0.00 0.00 84 1009.0
20260505200010 26 209 0.0 8.0 0.00 0.00 0.00 86 1009.1
20260505194505 26 194 0.0 11.3 0.00 0.00 0.00 86 1009.2